Sauk Centre, MN

10:12 PM CDT on August 30, 2015 (GMT -0500)
Hoboken | | Change Station
CLOSE
Current Station
Personal Weather Station
Location: Sauk Centre, MN
Elevation: 1293 ft
Nearby Weather Stations

Elev 1293 ft 45.74 °N, 94.97 °W | Updated 1 minute ago

Clear
Clear
67.3 °F
Feels Like 67.3 °F
N
0.0
Wind Variable Wind from SW

Today
High -- | Low -- °F
--% Chance of Precip.
Yesterday
High -- | Low -- °F
Precip. -- in
6:38 AM 8:01 PM
Full, 97% visible
Pressure 29.88 in
Visibility 10.0 miles
Clouds Clear
Dew Point 66 °F
Humidity 95%
Rainfall 0.00 in
Snow Depth Not available.
UV 0 out of 12
Pollen 10.20 out of 12
Air Quality Not available.
Flu Activity Not available.
METAR KD39 310254Z AUTO 15005KT 10SM CLR 19/18 A2988 RMK AO2 T01920183
Pressure 29.88 in
Visibility 10.0 miles
Clouds Clear
Dew Point 66 °F
Humidity 95%
Rainfall 0.00 in
Snow Depth Not available.
UV 0 out of 12
Pollen 10.20 out of 12
Air Quality Not available.
Flu Activity Not available.
METAR KD39 310254Z AUTO 15005KT 10SM CLR 19/18 A2988 RMK AO2 T01920183

10-Day Weather Forecast

×

Almanac

Astronomy

Aug. 30, 2015 Rise Set
Actual Time
Civil Twilight
Nautical Twilight
Astronomical Twilight
Moon
Length of Visible Light
Length of Day
Tomorrow will be .
, % of the Moon is Illuminated

Today's Extremes

State Highs State Lows

Community

WunderPhotos

Upload Photos

1,851,167 photos uploaded!

WunderBlogs® & News

Nearby

Air Quality

  Air Quality AQ Index Pollutant
Not available.

Snow Depth

Station Depth Elevation

Earthquake Activity

City Distance Mag. Time & Date
Minimum magnitude displayed is 2.5.

Coastal Water Temperatures

Place Temperature

Stations

Nearby Weather Stations

Station Location Temp. Windchill Dew Point Humidity Wind Precip. Elev Updated Type